{"data":{"norad_id":67202,"intl_designator":"2025-304L","name":"STARLINK-36263","alt_names":[],"object_type":"PAYLOAD","status":"ACTIVE","operator":null,"country":"US","launch_date":"2025-12-17","launch_site_code":"AFWTR","launch_vehicle":null,"mission":null,"orbit_class":"UNKNOWN","rcs_meters":null,"size_class":null,"mass_kg":null,"dimensions":null,"purposes":["comms"],"wikipedia_slug":null,"has_3d_model":false,"image_url":null,"decayed_at":null,"tle_current":{"epoch":"2026-05-25T00:03:38.549664Z","epoch_age_seconds":65005,"freshness":"FRESH","line1":"1 67202U 25304L   26145.00252951  .00002268  00000+0  19779-3 0  9996","line2":"2 67202  70.0019 342.1245 0002821 264.7225  95.3612 14.98335418 25311","mean_motion":14.98335418,"eccentricity":0.0002821,"inclination_deg":70.0019,"raan_deg":342.1245,"arg_perigee_deg":264.7225,"mean_anomaly_deg":95.3612,"bstar":0.00019779,"rev_number":2531,"period_min":96.106651601557,"perigee_km":570.07849158879,"apogee_km":573.99978096488,"semimajor_km":6950.1761362768,"source":"CELESTRAK","updated_at":"2026-05-25T13:38:21.509203Z"}}}